Cold Bay Airport
PACD : now visible

Airfield :











YOU CAN JOIN US ON...

 
LOGIN :

Register | Disclaimer

   EN    FR    IT 

 









Legend :    VFR   Marginal VFR   IFR   Intensive IFR   Very Intensive IFR
Visi :
Ceiling :
>= 8 km
>= 3000ft
5 to 8 km
1000 to 3000 ft
1500m to 5 km
500 to 1000 ft
800 to 1500m
200 to 500 ft
< 800m
< 200 ft
Symbols :   Thunderstorms  Fog  Heavy snow  Heavy precipitations  Wind > 20 kt






- Airport Elevation : 96 ft
- IATA code : CDB


PACD - Cold Bay

CURRENT METAR :
  • 272253Z 25004KT 10SM SCT027 OVC037 10/06 A2919

EXPIRED METARs :
  • 272153Z 25009KT 10SM FEW033 FEW043 OVC055 10/07 A2920
  • 272053Z 24009KT 10SM OVC047 09/07 A2922

TAF PACD
Valid from the 27 at 22:00 until the 28 at 18:00 UTC


272134Z 2722/2818 14015G30KT P6SM -RA SCT025 OVC045
TEMPO 2722/2724 BKN025
FM280000 29010KT 5SM -RA BR BKN015
FM280600 33015KT P6SM -SHRA SCT015 BKN025
FM281000 34018KT P6SM VCSH SCT025 BKN040
PAZA FIR / North America



MET'MAP, your aeronautical weather chart ! - Copyright ORBIFLY December 2007 - Disclaimer

ORBIFLY MET'MAP TEAM :

Programming & Development : Alexandra Zaïnal
Concept & original design : Baudouin d'Aumeries
Assistance for programming : Marc-Olivier Méhu
Technical & hardware support : Manuel Goepfert

Contact : metmap@orbifly.com




SOURCES & CREDITS :

   NOAA       Earth
Advisory